Location: Jackson Park
(37.2862°N, 79.9123°W)
Time: 05:37:59
(UTC+00:00)

Vanguard 2 Rocket - All Passes

Search period start: 10 May 2026 00:00
Search period end: 20 May 2026 00:00
Orbit: 553 x 3286 km, 32.9° (Epoch: 9 May)

Date Brightness Start Highest point End Pass type
(mag) Time Alt. Az. Time Alt. Az. Time Alt. Az.
10 May - 00:19:47 10° W 00:34:53 33° SW 00:45:28 10° SSE visible
10 May - 14:14:51 10° S 14:23:34 20° SE 14:34:43 10° E daylight
10 May - 16:23:05 10° SW 16:37:15 52° SSE 16:56:09 10° E daylight
10 May - 18:36:20 10° WSW 18:54:14 75° S 19:13:45 10° E daylight
10 May - 20:52:31 10° W 21:12:29 73° SSW 21:29:13 10° ESE daylight
10 May - 23:10:46 10° W 23:28:47 46° SW 23:41:37 10° SE daylight
11 May - 01:34:02 10° W 01:41:40 15° SW 01:47:58 10° SSW visible
11 May - 15:18:47 10° SSW 15:30:43 40° SE 15:47:32 10° E daylight
11 May - 17:30:22 10° WSW 17:46:20 69° SSE 18:06:19 10° E daylight
11 May - 19:45:17 10° W 20:04:25 77° S 20:22:57 10° ESE daylight
11 May - 22:02:28 10° W 22:21:55 59° SSW 22:36:54 10° SE daylight
12 May - 00:22:36 10° W 00:36:19 27° SW 00:46:36 10° S visible
12 May - 14:15:30 10° S 14:24:57 27° SE 14:38:03 10° E daylight
12 May - 16:25:05 10° SW 16:38:58 59° SSE 16:58:20 10° E daylight
12 May - 18:38:40 10° WSW 18:56:15 77° S 19:16:02 10° E daylight
12 May - 20:54:46 10° W 21:14:24 68° SSW 21:31:26 10° ESE daylight
12 May - 23:13:09 10° W 23:30:19 39° SW 23:43:13 10° SSE daylight
13 May - 13:14:09 10° SSE 13:19:48 15° SE 13:26:44 10° E daylight
13 May - 15:20:32 10° SW 15:32:20 47° SE 15:49:50 10° E daylight
13 May - 17:32:41 10° WSW 17:48:18 74° SSE 18:08:31 10° E daylight
13 May - 19:47:39 10° W 20:06:26 74° S 20:25:12 10° ESE daylight
13 May - 22:04:44 10° W 22:23:36 51° SSW 22:38:47 10° SE daylight
14 May - 00:26:03 10° W 00:37:39 20° SW 00:47:02 10° S visible
14 May - 14:16:47 10° SSW 14:26:27 33° SE 14:40:46 10° E daylight
14 May - 16:27:19 10° WSW 16:40:52 66° SSE 17:00:28 10° E daylight
14 May - 18:41:06 10° W 18:58:19 77° S 19:18:15 10° E daylight
14 May - 20:57:03 10° W 21:16:13 62° SSW 21:33:27 10° SE daylight
14 May - 23:15:50 10° W 23:31:44 32° SW 23:44:24 10° SSE daylight
15 May - 13:14:16 10° S 13:21:16 20° SE 13:30:48 10° E daylight
15 May - 15:22:35 10° SW 15:34:05 54° SSE 15:52:00 10° E daylight
15 May - 17:35:07 10° WSW 17:50:22 76° S 18:10:40 10° E daylight
15 May - 19:50:01 10° W 20:08:23 70° SSW 20:27:19 10° ESE daylight
15 May - 22:07:08 10° W 22:25:09 44° SW 22:40:20 10° SSE daylight
16 May - 00:30:50 10° W 00:38:58 14° SW 00:46:07 10° SSW visible
16 May - 14:18:32 10° SSW 14:28:06 40° SE 14:43:11 10° E daylight
16 May - 16:29:43 10° WSW 16:42:53 71° SSE 17:02:33 10° E daylight
16 May - 18:43:33 10° W 19:00:22 75° S 19:20:24 10° ESE daylight
16 May - 20:59:25 10° W 21:17:56 55° SSW 21:35:14 10° SE daylight
16 May - 23:18:59 10° W 23:33:04 25° SW 23:45:00 10° S daylight
17 May - 13:15:22 10° S 13:22:50 26° SE 13:33:53 10° E daylight
17 May - 15:24:52 10° SW 15:36:02 61° SSE 15:54:04 10° E daylight
17 May - 17:37:39 10° W 17:52:29 77° S 18:12:47 10° E daylight
17 May - 19:52:25 10° W 20:10:16 64° SSW 20:29:14 10° SE daylight
17 May - 22:09:47 10° W 22:26:36 36° SW 22:41:28 10° SSE daylight
18 May - 12:14:01 10° SSE 12:18:08 14° SE 12:23:12 10° ESE daylight
18 May - 14:20:36 10° SW 14:29:57 48° SSE 14:45:23 10° E daylight
18 May - 16:32:13 10° WSW 16:45:01 74° S 17:04:37 10° E daylight
18 May - 18:46:04 10° W 19:02:24 71° SSW 19:22:24 10° ESE daylight
18 May - 21:01:54 10° W 21:19:33 47° SSW 21:36:41 10° SE daylight
18 May - 23:23:02 10° W 23:34:25 19° SW 23:44:38 10° SSW daylight
19 May - 13:17:01 10° SSW 13:24:34 33° SE 13:36:30 10° E daylight
19 May - 15:27:19 10° WSW 15:38:09 67° SSE 15:56:06 10° E daylight
19 May - 17:40:12 10° W 17:54:38 75° S 18:14:49 10° ESE daylight
19 May - 19:54:55 10° W 20:12:03 57° SSW 20:30:55 10° SE daylight
19 May - 22:12:51 10° W 22:28:01 29° SW 22:42:05 10° S daylight
